Location: Monrovia
(34.7865°N, 86.7139°W)
Time: 22:04:27
(UTC+00:00)

BREEZE-M DEB (TANK) - Pass Details

Date: 14 July 2020
Orbit: 274 x 20502 km, 49.2° (Epoch: 08 August)

Event Time Altitude Azimuth Distance (km) Brightness Sun altitude
Rises 01:23:44 0° 226° (SW) 9,672 9.3 -4.9°
Reaches altitude 10° 01:33:22 10° 226° (SW) 5,973 8.2 -6.6°
Maximum altitude 01:45:23 80° 143° (SE) 857 3.7 -8.6°
Drops below altitude 10° 01:48:33 10° 55° (NE) 1,669 5.1 -9.2°
Sets 01:49:48 0° 54° (NE) 2,279 5.8 -9.4°
